EW6070 Athens GR current weather conditions

sailwx.info

Wind from 198 at 2 knots

Air temperature 12.2° C
Dewpoint 0.0° C

Last reported at 2020-Jan-22 15:01 UTC.
Time now 2020-Jan-22 15:45 UTC

Location: N 37°55' E 023°43'.
View on Google Maps.

See reports from other nearby stations

  
Tides and Currents Weather Stations Pressure Air Temp Water Temp Dewpoint Dewpoint Depression Visibility Wind Speed Wind Dir Waves Ship Positions
date/time (UTC)wind fromknots sea level pressurealtimeterstation pressurevisibilityair tempwater tempwave heightnotes
2020-Jan-22 15:01 198 2 12.2
2020-Jan-22 14:47 217 2 12.2
2020-Jan-22 14:32 193 3 12.2
2020-Jan-22 14:02 239 0 12.2
2020-Jan-22 13:46 196 12.2
2020-Jan-22 13:32 182 12.2
2020-Jan-22 13:02 209 12.2
2020-Jan-22 12:47 241 11.7
2020-Jan-22 12:32 222 12.2
2020-Jan-22 12:04 222 12.2
2020-Jan-22 11:46 233 11.7
2020-Jan-22 11:32 189 12.2
2020-Jan-22 11:02 193 11.1
2020-Jan-22 10:47 198 11.1
2020-Jan-22 10:32 209 11.1
2020-Jan-22 10:01 162 10.6
2020-Jan-22 09:46 213 10.0
2020-Jan-22 09:31 212 10.0
2020-Jan-22 09:01 224 9.4
2020-Jan-22 08:46 124 10.6
2020-Jan-22 08:32 124 10.0
2020-Jan-22 08:00 340 8.9
2020-Jan-22 07:46 342 8.3
2020-Jan-22 07:30 346 7.8
2020-Jan-22 07:00 353 7.2
2020-Jan-22 06:46 023 7.2
2020-Jan-22 06:31 023 6.1
2020-Jan-22 06:01 028 5.6
2020-Jan-22 05:46 032 5.0
2020-Jan-22 05:30 008 5.6
2020-Jan-22 05:00 007 6.1
2020-Jan-22 04:45 003 5.0
2020-Jan-22 04:30 030 4.4
2020-Jan-22 04:00 013 4.4
2020-Jan-22 03:45 305 5.0
2020-Jan-22 03:31 280 5.0
2020-Jan-22 03:01 040 4.4
2020-Jan-22 02:46 016 4.4
2020-Jan-22 02:30 337 5.6
2020-Jan-22 02:00 312 5.6
2020-Jan-22 01:45 359 5.6
2020-Jan-22 01:30 350 5.6
2020-Jan-22 01:01 323 5.0
2020-Jan-22 00:45 332 5.0
2020-Jan-22 00:30 028 4.4
2020-Jan-22 00:00 027 5.0
2020-Jan-21 23:45 031 5.0
2020-Jan-21 23:30 027 5.0
2020-Jan-21 23:00 359 5.0
2020-Jan-21 22:45 048 5.6
2020-Jan-21 22:32 031 5.6
2020-Jan-21 22:17 352 5.6
2020-Jan-21 22:03 001 5.6
2020-Jan-21 21:46 5.6
2020-Jan-21 21:32 027 5.6
2020-Jan-21 21:16 006 5.6
2020-Jan-21 21:02 018 5.6
2020-Jan-21 20:47 021 5.6
2020-Jan-21 20:32 023 5.6
2020-Jan-21 20:17 021 6.1
2020-Jan-21 20:03 024 6.1
2020-Jan-21 19:47 023 6.1
2020-Jan-21 19:32 349 6.1
2020-Jan-21 19:18 346 6.1
2020-Jan-21 19:02 047 6.1
2020-Jan-21 18:46 048 6.1
2020-Jan-21 18:32 030 6.1
2020-Jan-21 18:16 030 6.1
2020-Jan-21 18:01 336 6.1
2020-Jan-21 17:46 340 6.1
2020-Jan-21 17:31 330 6.7
2020-Jan-21 17:17 354 6.7
2020-Jan-21 17:03 342 0 6.7
2020-Jan-21 16:46 349 0 6.7
2020-Jan-21 16:31 344 0 6.7
2020-Jan-21 16:17 356 3 7.2
2020-Jan-21 16:01 350 2 7.2
2020-Jan-21 15:46 302 3 7.2
2020-Jan-21 15:32 306 4 7.2
2020-Jan-21 15:18 316 3 7.8
2020-Jan-21 15:01 344 5 7.8
2020-Jan-21 14:48 325 4 7.8
2020-Jan-21 14:31 332 5 7.8
2020-Jan-21 14:18 289 6 7.8
2020-Jan-21 14:01 318 5 7.8
2020-Jan-21 13:46 308 4 8.3
2020-Jan-21 13:32 337 5 7.8
2020-Jan-21 13:16 282 7 7.2
2020-Jan-21 13:01 305 6 7.2
2020-Jan-21 12:46 280 4 7.8
2020-Jan-21 12:31 292 5 7.8
2020-Jan-21 12:16 230 5 7.8
2020-Jan-21 12:01 357 6 7.8
2020-Jan-21 11:45 299 6 7.8
2020-Jan-21 11:31 326 6 7.8
2020-Jan-21 11:16 8.9
2020-Jan-21 11:00 031 6 8.9
2020-Jan-21 10:46 329 4 9.4
2020-Jan-21 10:31 9.4
2020-Jan-21 10:16 007 5 9.4
2020-Jan-21 10:01 064 5 8.9
2020-Jan-21 09:45 011 6 8.9
2020-Jan-21 09:31 048 2 8.9
2020-Jan-21 09:16 285 3 8.3
2020-Jan-21 09:01 311 4 8.3
2020-Jan-21 08:46 8.3
2020-Jan-21 08:31 325 5 8.3
2020-Jan-21 08:16 037 5 7.8
2020-Jan-21 08:00 240 4 7.8
2020-Jan-21 07:46 335 5 7.8
2020-Jan-21 07:31 291 4 7.2
2020-Jan-21 07:15 089 3 7.2
2020-Jan-21 07:00 325 3 6.7
2020-Jan-21 06:46 347 3 6.7
2020-Jan-21 06:30 336 1 6.7
2020-Jan-21 06:15 003 2 6.7
2020-Jan-21 06:00 6.7
2020-Jan-21 05:46 040 3 6.7
2020-Jan-21 05:30 357 2 6.7
2020-Jan-21 05:15 6.7
2020-Jan-21 05:00 037 4 6.7
2020-Jan-21 04:45 316 3 6.7
2020-Jan-21 04:30 357 5 6.7
2020-Jan-21 04:15 6.7
2020-Jan-21 04:00 356 2 7.2
2020-Jan-21 03:45 342 1 7.2
2020-Jan-21 03:30 319 2 7.2
2020-Jan-21 03:15 344 2 7.2
2020-Jan-21 03:00 325 1 7.2
2020-Jan-21 02:45 010 3 7.2
2020-Jan-21 02:30 323 3 7.2
2020-Jan-21 02:15 357 2 7.2
2020-Jan-21 02:01 7.2
2020-Jan-21 01:48 003 2 7.2
2020-Jan-21 01:32 030 1 7.2
2020-Jan-21 01:18 7.2
2020-Jan-21 01:01 353 2 7.2
2020-Jan-21 00:47 301 3 7.8
2020-Jan-21 00:32 7.8
2020-Jan-21 00:16 344 2 7.8
2020-Jan-21 00:02 337 2 7.8
2020-Jan-20 23:47 027 1 7.8
2020-Jan-20 23:32 336 1 7.8
2020-Jan-20 23:17 354 3 7.8
2020-Jan-20 23:01 320 3 7.8
2020-Jan-20 22:47 025 2 7.8
2020-Jan-20 22:31 339 1 7.8
2020-Jan-20 22:16 343 7.8
2020-Jan-20 22:02 7.8
2020-Jan-20 21:47 350 1 7.8
2020-Jan-20 21:31 7.8
2020-Jan-20 21:16 329 2 7.8
2020-Jan-20 21:01 037 2 7.8
2020-Jan-20 20:46 344 0 7.8
2020-Jan-20 20:33 342 1 7.8
2020-Jan-20 20:17 322 0 7.8
2020-Jan-20 20:01 339 0 7.8
2020-Jan-20 19:48 349 0 7.8
2020-Jan-20 19:31 333 0 7.8
2020-Jan-20 19:15 342 1 7.8
2020-Jan-20 19:02 322 1 7.8
2020-Jan-20 18:46 004 0 7.8
2020-Jan-20 18:31 312 1 7.8
2020-Jan-20 18:16 325 1 7.8
2020-Jan-20 18:00 038 2 7.8
2020-Jan-20 17:46 311 0 7.8
2020-Jan-20 17:31 006 1 7.8
2020-Jan-20 17:16 354 2 7.2
2020-Jan-20 17:01 065 1 7.2
2020-Jan-20 16:46 128 1 7.8
2020-Jan-20 16:32 017 3 7.8
2020-Jan-20 16:16 068 2 7.8
2020-Jan-20 16:01 025 1 7.8
2020-Jan-20 15:46 061 3 7.8
2020-Jan-20 15:31 041 3 7.8
2020-Jan-20 15:16 051 4 7.8
2020-Jan-20 15:00 007 4 7.8